www.pogodaiklimat.ru

Погода и климат >> Архив погоды >> Россия >> Якутия >> Усть-Миль


ПОГОДА в Усть-Миле

  • Прогноз погоды в Усть-Миле
  • Монитор погоды в Усть-Миле
  • Климат города

АРХИВ ПОГОДЫ в Усть-Миле

Время (UTC), дата Ветер
(напр.,м/с)
 
Видим.   Явления Облачность Т
(С)
Тd
(С)
f
(%)
Тe
(С)
Тes
(С)
Комфортность P
(гПа)
Po
(гПа)
Тmin
(С)
Tmax
(С)
R
(мм)
R24
(мм)
S
(см)
03 14.05 В 2 50 км 10/0
[Ac trans Cs]
+11.3 -3.6 35 +11 +20 998.4 977.1
06 14.05 Ю 2 50 км 10/0
[Ac trans Cs]
+13.7 -0.9 37 +13 +19 996.3 975.3
09 14.05 ЮВ 2 50 км 10/4 600 м
[Cb cap As op]
+13.8 -2.5 32 +14 +14 994.3 973.3 +14.5
12 14.05 ЮВ 2 50 км 10/6 600 м
[Cb cap As op]
+9.7 -1.2 47 +9 +9 995.2 973.9
15 14.05 ЮВ 1 50 км 10/0
[As op]
+8.9 -0.5 52 +9 +9 995.1 973.7
18 14.05 Ю 1 50 км 10/0
[As op]
+7.5 +1.6 66 +7 +7 995.1 973.7
21 14.05 штиль 0 20 км слабый ливневой дождь 10/4 600 м
[Cb cap As op]
+4.9 +4.9 100 +4 +4 996.3 974.6 +4.8 0.9
00 15.05 штиль 0 20 км слабый ливневой дождь 10/6 600 м
[Cb cap As op]
+5.0 +5.0 100 +4 +5 996.9 975.2
03 15.05 З 1 20 км слабый ливневой дождь 10/6 600 м
[Cb cap As op]
+6.5 +6.5 100 +5 +6 998.2 976.6
06 15.05 З 1 50 км {ливн. осадки} 10/8 600 м
[Cb cap As op]
+5.5 +4.8 95 +4 +5 1000.6 978.9
09 15.05 З 1 20 км слабый ливневой дождь 10/4 600 м
[Cb cap As op]
+5.0 +4.5 97 +4 +4 1003.2 981.4 +6.7 0.6
12 15.05 С 1 50 км {ливн. осадки} 10/3 600 м
[Cb cap Cs]
+4.8 +4.6 99 +3 +3 1005.1 983.2
15 15.05 ЮЗ 1 50 км 10/3 600 м
[Cb cap Cs]
+3.2 +1.7 90 +2 +2 1005.4 983.3
18 15.05 штиль 0 50 км 10/4 600 м
[Cb cap Cs]
+1.2 +0.1 92 0 0 1005.9 983.6
21 15.05 н/о -0.5 1006.7 984.6
00 16.05 З 3 50 км 6/0
[Ci fib]
+7.7 -9.8 28 +6 +12 1006.9 985.1
03 16.05 З 3 50 км 8/0
[Cs]
+9.9 -8.2 27 +8 +18 опасность
простуды
1005.7 984.2
06 16.05 З 2 50 км 9/0
[Ci fib]
+12.0 -7.2 25 +12 +19 1004.5 983.2
09 16.05 З 2 50 км 8/3 600 м
[Cu hum Ci fib]
+13.0 -7.5 23 +13 +14 1003.9 982.6 +13.6
12 16.05 штиль 0 50 км 3/3
[Cb cap]
+6.4 -9.8 30 +6 +6 1004.4 982.6
15 16.05 штиль 0 50 км 4/4
[Cb cap]
+1.6 -7.4 51 +1 +1 1005.9 983.6
18 16.05 ЮЗ 1 50 км 8/0
[Ac trans]
-0.9 -4.1 79 -3 -3 1006.8 984.4
21 16.05 ЮЗ 1 50 км 10/3 600 м
[Cb cap Ac trans Ci fib]
+1.6 -3.2 70 0 +1 1007.8 985.7 -1.3
00 17.05 З 1 50 км 8/3 600 м
[Cb cap Ac trans Ci fib]
+7.5 -5.3 40 +7 +12 1009.1 987.3
03 17.05 Ю 2 50 км 6/6 600 м
[Cb cap]
+12.2 -2.4 36 +12 +17 1007.3 986.0
06 17.05 ЮВ 1 50 км 8/8 600 м
[Cb cap]
+11.4 -4.2 33 +12 +14 1006.8 985.2
09 17.05 С 1 50 км 6/6 600 м
[Cb cap]
+11.5 -4.5 32 +12 +13 1006.5 985.0 +12.5 0.0
12 17.05 штиль 0 50 км {ливн. осадки} 10/3 600 м
[Cb cap Cs]
+7.0 -6.1 39 +7 +7 1007.9 986.1
15 17.05 СЗ 1 50 км 10/8 600 м
[Cb cap Cs]
+3.2 -5.1 54 +2 +2 1008.7 986.6
18 17.05 штиль 0 50 км 3/0
[Ac trans]
-2.4 -6.4 74 -3 -3 1009.5 986.9
21 17.05 штиль 0 50 км ясно +1.2 -4.0 68 0 +3 1009.5 987.2 -3.5
00 18.05 В 1 50 км 4/0
[Ci fib]
+9.1 -3.0 42 +9 +19 опасность
простуды
1009.4 987.7
03 18.05 В 1 50 км 10/0
[Ci fib]
+11.7 -3.7 34 +12 +25 опасность
простуды
1007.4 986.1
06 18.05 ЮВ 1 50 км 10/0
[Ac trans Cs]
+13.4 -5.6 26 +14 +21 1006.8 985.5
09 18.05 С 1 50 км 10/0
[Ci fib]
+13.7 -3.2 31 +14 +16 1007.5 986.3 +14.3
12 18.05 штиль 0 50 км 6/0
[Ci fib]
+6.0 -8.4 35 +6 +6 1008.8 997.0
15 18.05 С 1 50 км ясно -1.8 -8.3 61 -3 -3 1010.6 988.1
18 18.05 штиль 0 50 км 6/0
[Ac trans]
-2.6 -8.7 63 -3 -3 1011.1 988.4
21 18.05 В 1 50 км 10/0
[Ac trans Cs]
+2.6 -3.6 64 +1 +3 1010.5 988.3 -2.6
00 19.05 ЮВ 1 50 км 10/0
[Cs]
+13.6 +1.6 44 +14 +22 1007.3 986.1
03 19.05 ЮВ 1 50 км в посл. час ливневой дождь 10/4 600 м
[Cb cap Cs]
+15.8 +3.4 43 +17 +24 1006.3 985.3
06 19.05 СВ 1 50 км {ливн. осадки} 10/6 600 м
[Cb cap As op]
+17.8 +4.1 40 +19 +20 1004.1 983.2
09 19.05 ЮЗ 1 50 км 8/8 600 м
[Sc]
+15.2 +4.0 47 +16 +16 1005.5 984.5 +18.0 0.0
12 19.05 штиль 0 50 км 10/0
[Cs]
+9.4 +3.1 65 +9 +9 1006.6 985.1
15 19.05 СВ 1 50 км 10/0
[Ac trans Cs]
+6.4 +2.3 75 +6 +6 1006.0 984.2
18 19.05 В 1 20 км слабый ливневой дождь 10/6 600 м
[Cb cap Cs]
+5.7 +2.0 77 +5 +5 1003.9 982.2
21 19.05 штиль 0 50 км {ливн. осадки} 10/4 600 м
[Cb cap As op]
+5.8 +5.3 97 +5 +5 1002.8 981.1 +5.6 0.0
00 20.05 СЗ 2 10 км сильный ливневой дождь 10/8 600 м
[Cb cap As op]
+8.2 +8.2 100 +6 +6 1006.9 985.3
03 20.05 СЗ 3 50 км {ливн. осадки} 10/8 600 м
[Cb cap As op]
+7.8 +2.5 69 +5 +6 1011.9 990.2
06 20.05 ЮВ 2 50 км {ливн. осадки} 8/8 600 м
[Cb cap]
+11.3 +1.9 52 +10 +12 1012.6 991.2
09 20.05 ЮЗ 2 50 км {ливн. осадки} 6/4 600 м
[Cb cap Ac trans]
+12.5 -0.4 41 +12 +13 1013.7 992.3 +12.8 0.7
12 20.05 ЮЗ 1 50 км {ливн. осадки} 9/6 600 м
[Cb cap Ac trans]
+9.1 -1.6 47 +9 +9 1016.1 994.3
15 20.05 штиль 0 50 км 6/3 600 м
[Cb cap Ac trans]
+3.0 -3.1 64 +2 +2 1018.3 996.0
18 20.05 Ю 1 50 км ясно -1.8 -3.0 91 -4 -4 1020.6 997.8
21 20.05 ЮЗ 2 50 км 3/0
[Ci fib]
+3.5 +0.3 80 +1 +2 1020.2 997.9 -2.1
00 21.05 Ю 2 50 км 6/0
[Ac trans Ci fib]
+10.4 +1.0 52 +9 +17 1019.3 997.5

 

Местоположение метеостанции Усть-Миль (Якутия, Россия): широта 59.63 долгота 133.00 высота над уровнем моря 179 м.

В архиве по умолчанию представлена погода в Усть-Миле за последнюю неделю. Архивные данные за месяц целиком и за предыдущие месяцы, начиная с января 2011 года, Вы можете получить, выбрав интересующий диапазон дат из раскрывающегося списка и нажав кнопку "Ввод!".


*Определитесь, кто Вы:
робот инопланетянин человек

Внимание! Время в таблицах - всемирное. Для получения местного времени необходимо прибавить поправку, которая в Усть-Миле равна 9 ч.

Смотрите также архив погоды в соседних городах и на ближайших метеорологических станциях:

Погода в Усть-Мае (Якутия, Россия) (112 км)
Погода в Усть-Юдоме (Якутия, Россия) (129 км)
Погода в Амге (Якутия, Россия) (154 км)
Погода в Учуре (Якутия, Россия) (169 км)
Погода в Тегюльте (Якутия, Россия) (191 км)
Погода в Чюльбю (Якутия, Россия) (240 км)
Погода в Югоренке (Якутия, Россия) (259 км)
Погода в Чурапче (Якутия, Россия) (268 км)
Погода в Угино (Якутия, Россия) (280 км)
Погода в Охотском Перевозе (Якутия, Россия) (284 км)

Пояснения к столбцам:

Ветер - указаны скорость ветра в м/с - средняя за 10 мин, порывы в срок и между сроками (в фигурных скобках) и направление, откуда дует ветер: С - северный, СВ - северо-восточный, В - восточный, ЮВ - юго-восточный, Ю - южный, ЮЗ - юго-западный, З - западный, СЗ - северо-западный.
Видимость - горизонтальная дальность видимости в метрах или километрах. При видимости от 1 до 10 км при отсутствии осадков обычно наблюдается дымка, при ухудшении видимости до 1 км и менее - туман. В сухую погоду видимость может ухудшаться дымом, пылью или мглою.
Явления - указаны атмосферные явления, наблюдавшиеся в срок или в последний час перед сроком; фигурными скобками обозначены явления, наблюдавшиеся между сроками (за 1-3 часа до срока); квадратными скобками обозначены град или гололедные отложения с указанием их диаметра в мм.
Облачность - указаны через наклонную черту общая и нижняя облачность в баллах и высота нижней границы облаков в метрах; квадратными скобками обозначены формы облаков: Ci - перистые, Cs - перисто-слоистые, Cc - перисто-кучевые, Ac - высококучевые, As - высокослоистые, Sc - слоисто-кучевые, Ns - слоисто-дождевые, Cu - кучевые, Cb - кучево-дождевые. Подробнее классификацию облаков см. в Атласе облаков (PDF).
T - Температура воздуха - температура, измеренная на высоте 2 м над землей.
Td - Температура точки росы - температура, при понижении до которой содержащийся в воздухе водяной пар достигнет насыщения.
f - Относительная влажность воздуха - влажноcть воздуха, измеренная на высоте 2 м над землей.
Te - Эффективная температура - температура, которую ощущает одетый по сезону человек в тени. Характеристика душности погоды. При расчете учитывается влияние влажности воздуха и скорости ветра на теплоощущения человека.
Tes - Эффективная температура на солнце - температура, которую ощущает человек, с поправкой на солнечный нагрев. Характеристика знойности погоды. Зависит от высоты солнца над горизонтом, облачности и скорости ветра. Ночью, в пасмурную погоду, а также при ветре 12 м/с и более поправка равна нулю.
P - Атмосферное давление - приведенное к уровню моря атмосферное давление.
Po - Атмосферное давление - измеренное на уровне метеостанции атмосферное давление.
Tmin - Минимальная температура - минимум температуры воздуха на высоте 2 м над землей.
Tmax - Максимальная температура - максимум температуры воздуха на высоте 2 м над землей.
R - Количество осадков - Количество выпавших осадков за период времени, мм. При наведении курсора мыши на число - период времени, за который выпало указанное количество осадков.
R24 - Количество осадков - Количество выпавших осадков за 24 часа, мм.
S - Снежный покров - Высота снежного покрова, см. При наведении курсора мыши на число - состояние снежного покрова и степень покрытия местности в баллах.